STARLINK-5134 (53976 NORAD) Tracking and Keplerian Element Data

This shows tracking and keplerian element data for the satellite.

Feedback or suggestion? Click here.




ElementValue
Catalog53976
NameSTARLINK-5134
Epoch Orbit130
Epoch Day324.91667824
Epoch Year2022
RAAN224.1609
Inclination53.2167
Eccentricity0.0001432
Argument of Perigee52.373
Mean Anonmoly160.6832
Mean Motion15.73174159
Decay Rate0.00026472
L11 53976U 22125N 22324.91667824 .00026472 00000+0 19265-3 0 9994
L22 53976 53.2167 224.1609 0001432 52.3730 160.6832 15.73174159 1303



Live tracking and technical data element details for STARLINK-5134 (NORAD 53976). STARLINK-5134 can be tracked NOW for your location showing map with azimuth and elevation plus other details from your city location.







IsCatalogInMostPopularTable: catalog: 53976, numindb: 3
Update: records affected: 1



GetName: 53976 STARLINK-5134

Hit Count: updated at: Mon, 28 Nov 2022 21:16:20 GMT